SAVIL Weather Reports


time (UTC)temp
F
wind
direction
speed
knots
gust
knots
rain 1hr
in
rain 24hr
in
rain mn
in
humidity
%
barometer
mb
20260506112718 49 291 7.8 13.9 0.00 0.00 0.00 35 1008.7
20260506110718 48 272 10.4 18.2 0.00 0.00 0.00 32 1008.6
20260506104718 50 240 11.3 20.9 0.00 0.00 0.00 35 1008.2
20260506102718 48 287 9.6 16.5 0.00 0.00 0.00 36 1008.3
20260506100718 48 279 7.0 13.0 0.00 0.00 0.00 37 1007.9
20260506094718 46 279 7.0 12.2 0.00 0.00 0.00 40 1007.8
20260506092717 46 276 7.8 14.8 0.00 0.00 0.00 38 1007.6
20260506090717 46 260 8.7 15.6 0.00 0.00 0.00 41 1007.5
20260506084717 46 266 9.6 18.2 0.00 0.00 0.00 39 1007.2
20260506082717 46 262 10.4 22.6 0.00 0.00 0.00 40 1007.1
20260506080717 46 248 9.6 18.2 0.00 0.00 0.00 43 1006.8
20260506072717 44 272 9.6 18.2 0.00 0.03 0.00 46 1006.5
20260506070717 44 258 9.6 17.4 0.00 0.03 0.00 47 1006.4
20260506060717 42 254 9.6 16.5 0.00 0.04 0.00 51 1005.8
20260506050717 40 268 6.1 12.2 0.00 0.04 0.00 60 1005.4
20260506044717 39 253 6.1 11.3 0.00 0.04 0.00 63 1005.3
20260506042717 38 259 6.1 11.3 0.00 0.04 0.00 64 1005.2
20260506034716 38 253 5.2 8.7 0.00 0.04 0.00 66 1004.9
20260506032716 37 254 4.3 7.0 0.00 0.04 0.00 66 1004.7
20260506030716 37 247 4.3 7.8 0.00 0.04 0.00 67 1004.5
20260506024716 36 234 6.1 9.6 0.00 0.04 0.00 66 1004.3
20260506022716 36 247 4.3 7.0 0.00 0.04 0.00 67 1004.2
20260506020716 36 241 4.3 7.8 0.00 0.04 0.00 65 1004.1
20260506014716 37 253 5.2 9.6 0.00 0.04 0.00 62 1004.0
20260506012716 38 246 5.2 8.7 0.00 0.04 0.00 59 1003.7
20260506010716 38 255 6.1 11.3 0.00 0.04 0.00 58 1003.7
20260506004716 39 264 7.8 11.3 0.00 0.04 0.00 57 1003.6
20260506002716 39 258 5.2 9.6 0.00 0.04 0.00 57 1003.4
20260506000716 39 270 7.0 11.3 0.00 0.04 0.00 56 1003.3
20260505234716 39 272 7.0 12.2 0.00 0.04 0.00 55 1003.1
20260505232716 39 271 5.2 10.4 0.00 0.04 0.00 54 1003.1
20260505230716 40 269 6.1 11.3 0.00 0.04 0.00 52 1003.0
20260505224715 40 264 5.2 10.4 0.00 0.04 0.00 51 1003.0
20260505222715 40 255 5.2 9.6 0.00 0.04 0.00 50 1002.9
20260505220715 41 253 6.1 11.3 0.00 0.04 0.00 48 1002.8
20260505214715 41 258 6.1 11.3 0.00 0.04 0.00 47 1002.6
20260505212716 42 247 5.2 13.0 0.00 0.04 0.00 44 1002.4
20260505210715 41 231 5.2 8.7 0.00 0.04 0.00 44 1002.3
20260505204715 42 232 5.2 8.7 0.00 0.04 0.04 43 1002.2
20260505202715 42 230 5.2 8.7 0.00 0.04 0.04 42 1002.1
20260505200715 42 234 5.2 8.7 0.00 0.04 0.04 42 1002.0
20260505194715 43 248 5.2 9.6 0.00 0.04 0.04 40 1002.0
20260505192715 43 242 4.3 7.8 0.00 0.04 0.04 38 1001.9
20260505190715 44 250 4.3 7.0 0.00 0.04 0.04 38 1001.8
20260505184714 43 251 3.5 6.1 0.00 0.04 0.04 41 1001.7
20260505182714 45 272 5.2 7.8 0.00 0.04 0.04 37 1001.5
20260505180714 45 287 6.1 10.4 0.00 0.04 0.04 36 1001.4
20260505174714 46 289 5.2 12.2 0.00 0.04 0.04 36 1001.2
20260505172714 47 289 7.8 13.9 0.00 0.04 0.04 34 1001.0
20260505170714 47 291 7.0 13.0 0.00 0.04 0.04 34 1000.9
20260505164714 47 284 6.1 13.0 0.00 0.04 0.04 34 1000.8
20260505162714 47 289 7.0 13.0 0.00 0.04 0.04 35 1000.7
20260505160714 47 300 7.8 14.8 0.00 0.04 0.04 36 1000.6
20260505152714 49 287 8.7 15.6 0.00 0.04 0.04 32 999.9
20260505150714 49 309 7.8 14.8 0.00 0.04 0.04 33 999.7
20260505124713 44 330 9.6 16.5 0.00 0.05 0.04 56 999.1
20260505122713 47 280 8.7 14.8 0.00 0.05 0.04 46 998.5
20260505120713 46 264 9.6 25.2 0.00 0.05 0.04 49 998.8
20260505114713 47 275 8.7 16.5 0.00 0.05 0.04 43 998.1